Time,TemperatureF,DewpointF,PressureIn,WindDirection,WindDirectionDegrees,WindSpeedMPH,WindSpeedGustMPH,Humidity,HourlyPrecipIn,Conditions,Clouds,dailyrainin,SoftwareType,DateUTC
2013-02-13 00:02:00,43.0,41.0,29.84,North,355,0.0,0.0,91,0.00,,,0.05,,2013-02-13 05:02:00,
2013-02-13 00:12:00,43.0,41.0,29.83,North,355,0.0,0.0,91,-99.99,,,-99.99,,2013-02-13 05:12:00,
2013-02-13 00:22:00,43.0,41.0,29.83,North,355,0.0,0.0,91,-99.99,,,-99.99,,2013-02-13 05:22:00,
2013-02-13 00:32:00,43.0,41.0,29.83,North,355,0.0,0.0,91,-99.99,,,-99.99,,2013-02-13 05:32:00,
2013-02-13 00:42:00,43.0,41.0,29.83,North,355,0.0,0.0,91,-99.99,,,-99.99,,2013-02-13 05:42:00,
2013-02-13 00:52:00,43.0,41.0,29.82,North,355,0.0,0.0,92,0.00,,,0.05,,2013-02-13 05:52:00,
2013-02-13 01:02:00,43.0,41.0,29.82,North,355,0.0,0.0,92,0.00,,,0.05,,2013-02-13 06:02:00,
2013-02-13 01:11:00,43.0,41.0,29.82,North,355,0.0,0.0,92,0.00,,,0.05,,2013-02-13 06:11:00,
2013-02-13 01:21:00,43.0,41.0,29.82,North,355,0.0,0.0,92,0.00,,,0.05,,2013-02-13 06:21:00,
2013-02-13 01:32:00,43.0,41.0,29.82,North,355,0.0,0.0,92,0.00,,,0.05,,2013-02-13 06:32:00,
2013-02-13 03:11:00,43.0,41.0,29.76,North,355,0.0,0.0,94,0.02,,,0.08,,2013-02-13 08:11:00,
2013-02-13 03:22:00,43.0,41.0,29.76,North,355,0.0,0.0,94,0.02,,,0.08,,2013-02-13 08:22:00,
2013-02-13 03:32:00,43.0,41.0,29.75,North,355,0.0,0.0,94,-99.99,,,-99.99,,2013-02-13 08:32:00,
2013-02-13 03:43:00,43.0,41.0,29.75,North,355,0.0,0.0,94,-99.99,,,-99.99,,2013-02-13 08:43:00,
2013-02-13 03:52:00,43.0,41.0,29.75,North,355,0.0,0.0,94,-99.99,,,-99.99,,2013-02-13 08:52:00,
2013-02-13 04:01:00,43.0,41.0,29.75,North,355,0.0,0.0,94,-99.99,,,-99.99,,2013-02-13 09:01:00,
2013-02-13 04:11:00,43.0,41.0,29.75,North,355,0.0,0.0,94,-99.99,,,-99.99,,2013-02-13 09:11:00,
2013-02-13 15:11:00,47.0,39.0,29.78,NNW,329,7.0,13.0,75,0.00,,,0.16,,2013-02-13 20:11:00,
2013-02-13 15:22:00,47.0,39.0,29.78,NNW,329,7.0,13.0,75,0.00,,,0.16,,2013-02-13 20:22:00,
2013-02-13 15:32:00,47.0,38.0,29.78,WNW,298,6.0,14.0,72,0.00,,,0.16,,2013-02-13 20:32:00,
2013-02-13 15:42:00,48.0,40.0,29.80,NW,304,5.0,13.0,74,0.00,,,0.16,,2013-02-13 20:42:00,
2013-02-13 15:52:00,48.0,40.0,29.80,NW,304,5.0,13.0,74,0.00,,,0.16,,2013-02-13 20:52:00,
2013-02-13 16:01:00,46.0,38.0,29.82,WNW,298,6.0,14.0,73,0.00,,,0.16,,2013-02-13 21:01:00,
2013-02-13 16:11:00,46.0,38.0,29.82,WNW,298,6.0,14.0,73,0.00,,,0.16,,2013-02-13 21:11:00,
2013-02-13 16:21:00,44.0,36.0,29.83,NNW,346,4.0,11.0,74,0.00,,,0.16,,2013-02-13 21:21:00,
2013-02-13 16:31:00,43.0,36.0,29.85,NW,323,3.0,4.0,77,0.00,,,0.16,,2013-02-13 21:31:00,
2013-02-13 16:42:00,43.0,37.0,29.85,North,350,4.0,8.0,79,0.00,,,0.16,,2013-02-13 21:42:00,
2013-02-13 16:52:00,43.0,37.0,29.85,North,350,4.0,8.0,79,0.00,,,0.16,,2013-02-13 21:52:00,
2013-02-13 17:02:00,42.0,35.0,29.86,NW,325,6.0,11.0,77,0.00,,,0.16,,2013-02-13 22:02:00,
2013-02-13 17:11:00,42.0,36.0,29.87,WNW,295,2.0,5.0,79,0.00,,,0.16,,2013-02-13 22:11:00,
2013-02-13 17:21:00,42.0,36.0,29.87,WNW,295,2.0,5.0,79,0.00,,,0.16,,2013-02-13 22:21:00,
2013-02-13 17:31:00,41.0,35.0,29.87,NW,319,4.0,8.0,79,0.00,,,0.16,,2013-02-13 22:31:00,
2013-02-13 17:42:00,41.0,35.0,29.87,NW,319,4.0,8.0,79,0.00,,,0.16,,2013-02-13 22:42:00,
2013-02-13 17:52:00,41.0,35.0,29.88,WNW,295,1.0,8.0,80,0.00,,,0.16,,2013-02-13 22:52:00,
2013-02-13 18:01:00,41.0,35.0,29.89,NW,317,2.0,3.0,80,0.00,,,0.16,,2013-02-13 23:01:00,
2013-02-13 18:11:00,41.0,35.0,29.89,WNW,297,1.0,5.0,80,0.00,,,0.16,,2013-02-13 23:11:00,
2013-02-13 18:21:00,41.0,35.0,29.89,WNW,297,1.0,5.0,80,0.00,,,0.16,,2013-02-13 23:21:00,
2013-02-13 18:32:00,40.0,35.0,29.90,WNW,297,1.0,2.0,81,0.00,,,0.16,,2013-02-13 23:32:00,
2013-02-13 18:42:00,40.0,35.0,29.90,WNW,297,1.0,2.0,81,0.00,,,0.16,,2013-02-13 23:42:00,
2013-02-13 18:52:00,40.0,35.0,29.91,WNW,300,0.0,3.0,82,0.00,,,0.16,,2013-02-13 23:52:00,
2013-02-13 19:02:00,40.0,35.0,29.92,WNW,300,0.0,1.0,83,0.00,,,0.16,,2013-02-14 00:02:00,
2013-02-13 19:11:00,40.0,35.0,29.92,WNW,300,0.0,1.0,83,0.00,,,0.16,,2013-02-14 00:11:00,
2013-02-13 19:22:00,40.0,35.0,29.92,NW,316,0.0,1.0,83,0.00,,,0.15,,2013-02-14 00:22:00,
2013-02-13 19:32:00,40.0,35.0,29.93,NW,316,0.0,1.0,83,0.00,,,0.15,,2013-02-14 00:32:00,
2013-02-13 19:42:00,40.0,35.0,29.93,NW,316,0.0,1.0,83,0.00,,,0.15,,2013-02-14 00:42:00,
2013-02-13 19:52:00,40.0,35.0,29.93,NW,316,0.0,1.0,83,0.00,,,0.15,,2013-02-14 00:52:00,
2013-02-13 20:01:00,40.0,35.0,29.93,NW,316,0.0,1.0,82,0.00,,,0.15,,2013-02-14 01:01:00,
2013-02-13 20:11:00,40.0,35.0,29.93,NW,316,0.0,0.0,81,0.00,,,0.12,,2013-02-14 01:11:00,
2013-02-13 20:21:00,40.0,35.0,29.93,NW,316,0.0,0.0,81,0.00,,,0.12,,2013-02-14 01:21:00,
2013-02-13 20:32:00,39.0,34.0,29.93,NW,316,0.0,0.0,81,0.00,,,0.12,,2013-02-14 01:32:00,
2013-02-13 20:41:00,39.0,34.0,29.93,NW,316,0.0,0.0,81,0.00,,,0.12,,2013-02-14 01:41:00,
2013-02-13 20:52:00,39.0,34.0,29.94,NW,316,0.0,0.0,83,0.00,,,0.12,,2013-02-14 01:52:00,
2013-02-13 21:01:00,38.0,34.0,29.94,NW,316,0.0,0.0,85,0.00,,,0.12,,2013-02-14 02:01:00,
2013-02-13 21:11:00,38.0,34.0,29.95,NW,316,0.0,1.0,86,0.00,,,0.11,,2013-02-14 02:11:00,
2013-02-13 21:21:00,38.0,34.0,29.95,NW,316,0.0,1.0,86,0.00,,,0.11,,2013-02-14 02:21:00,
2013-02-13 21:31:00,38.0,34.0,29.95,NW,316,0.0,1.0,86,0.00,,,0.11,,2013-02-14 02:31:00,
2013-02-13 21:41:00,38.0,34.0,29.95,NW,316,0.0,1.0,86,0.00,,,0.11,,2013-02-14 02:41:00,
2013-02-13 21:52:00,38.0,34.0,29.95,NW,316,0.0,1.0,86,0.00,,,0.11,,2013-02-14 02:52:00,
2013-02-13 22:02:00,39.0,34.0,29.96,NW,316,0.0,1.0,83,0.00,,,0.11,,2013-02-14 03:02:00,
2013-02-13 22:11:00,39.0,34.0,29.97,NW,316,0.0,0.0,82,0.00,,,0.11,,2013-02-14 03:11:00,
2013-02-13 22:22:00,39.0,34.0,29.97,NW,316,0.0,0.0,82,0.00,,,0.11,,2013-02-14 03:22:00,
2013-02-13 22:31:00,39.0,34.0,29.97,NW,316,0.0,1.0,81,0.00,,,0.11,,2013-02-14 03:31:00,
2013-02-13 22:42:00,39.0,34.0,29.97,NW,316,0.0,1.0,81,0.00,,,0.11,,2013-02-14 03:42:00,
2013-02-13 22:52:00,39.0,34.0,29.97,NW,316,0.0,0.0,81,0.00,,,0.11,,2013-02-14 03:52:00,
2013-02-13 23:01:00,39.0,34.0,29.97,NW,316,0.0,1.0,81,0.00,,,0.11,,2013-02-14 04:01:00,
2013-02-13 23:12:00,40.0,35.0,29.98,NW,316,0.0,1.0,81,0.00,,,0.11,,2013-02-14 04:12:00,
2013-02-13 23:21:00,40.0,35.0,29.98,NW,316,0.0,1.0,81,0.00,,,0.11,,2013-02-14 04:21:00,
2013-02-13 23:32:00,40.0,35.0,29.98,NW,316,0.0,1.0,81,0.00,,,0.11,,2013-02-14 04:32:00,
2013-02-13 23:42:00,40.0,35.0,29.98,NW,316,0.0,1.0,81,0.00,,,0.11,,2013-02-14 04:42:00,
2013-02-13 23:52:00,40.0,35.0,29.98,NW,316,0.0,0.0,81,0.00,,,0.11,,2013-02-14 04:52:00,